DC1NF-7 Weather Reports


Display with metric or nautical units.
time (UTC)temp
F
wind
direction
speed
MPH
gust
MPH
rain 1hr
in
rain 24hr
in
rain mn
in
humidity
%
barometer
mb
20260509134518 71 237 2.0 4.0 0.00 0.00 0.00 45 1016.9
20260509133618 71 211 3.0 6.0 0.00 0.00 0.00 45 1017.0
20260509132611 70 106 2.0 4.0 0.00 0.00 0.00 47 1017.2
20260509131609 71 106 1.0 4.0 0.00 0.00 0.00 45 1017.4
20260509130607 71 91 3.0 6.0 0.00 0.00 0.00 46 1017.5
20260509125600 70 121 2.0 7.0 0.00 0.00 0.00 48 1017.6
20260509124556 69 78 3.0 7.0 0.00 0.00 0.00 50 1017.7
20260509123554 70 169 2.0 4.0 0.00 0.00 0.00 47 1017.7
20260509122552 70 81 1.0 2.0 0.00 0.00 0.00 47 1017.8
20260509121550 69 74 3.0 6.0 0.00 0.00 0.00 50 1018.1
20260509120546 67 75 2.0 4.0 0.00 0.00 0.00 51 1018.1
20260509115540 70 100 1.0 4.0 0.00 0.00 0.00 48 1018.2
20260509114537 68 142 2.0 4.0 0.00 0.00 0.00 50 1018.1
20260509113534 66 119 3.0 7.0 0.00 0.00 0.00 54 1018.2
20260509112531 66 74 2.0 4.0 0.00 0.00 0.00 52 1018.3
20260509111527 67 79 2.0 7.0 0.00 0.00 0.00 50 1018.5
20260509110521 67 210 1.0 4.0 0.00 0.00 0.00 52 1018.6
20260509105518 67 68 1.0 4.0 0.00 0.00 0.00 51 1018.8
20260509104618 64 89 4.0 6.0 0.00 0.00 0.00 56 1018.8
20260509103614 65 59 1.0 4.0 0.00 0.00 0.00 56 1019.0
20260509102610 67 71 1.0 4.0 0.00 0.00 0.00 54 1019.0
20260509101602 64 103 1.0 4.0 0.00 0.00 0.00 58 1018.9
20260509100558 64 73 2.0 7.0 0.00 0.00 0.00 59 1019.0
20260509095557 64 228 1.0 4.0 0.00 0.00 0.00 61 1019.1
20260509094549 63 130 0.0 4.0 0.00 0.00 0.00 62 1019.1
20260509093546 63 228 1.0 4.0 0.00 0.00 0.00 64 1019.2
20260509092546 61 203 2.0 4.0 0.00 0.00 0.00 66 1019.1
20260509091544 61 88 2.0 4.0 0.00 0.00 0.00 66 1019.3
20260509090536 62 166 1.0 4.0 0.00 0.00 0.00 66 1019.3
20260509085535 61 199 0.0 4.0 0.00 0.00 0.00 66 1019.3
20260509084528 59 84 1.0 2.0 0.00 0.00 0.00 69 1019.4
20260509083527 59 84 2.0 4.0 0.00 0.00 0.00 70 1019.5
20260509082521 58 210 1.0 2.0 0.00 0.00 0.00 72 1019.5
20260509081518 57 63 1.0 2.0 0.00 0.00 0.00 72 1019.6
20260509080515 57 96 1.0 4.0 0.00 0.00 0.00 72 1019.6
20260509075612 57 94 1.0 4.0 0.00 0.00 0.00 73 1019.6
20260509074617 57 180 0.0 2.0 0.00 0.00 0.00 72 1019.6
20260509073605 56 101 1.0 4.0 0.00 0.00 0.00 73 1019.6
20260509072603 55 92 1.0 2.0 0.00 0.00 0.00 75 1019.7
20260509071556 53 97 1.0 4.0 0.00 0.00 0.00 79 1019.6
20260509070556 53 62 1.0 4.0 0.00 0.00 0.00 78 1019.8
20260509065549 52 110 1.0 4.0 0.00 0.00 0.00 83 1019.8
20260509064550 51 0.0 2.0 0.00 0.00 0.00 85 1019.7
20260509063543 51 95 1.0 4.0 0.00 0.00 0.00 83 1019.7
20260509062538 49 83 1.0 2.0 0.00 0.00 0.00 87 1019.7
20260509061534 49 90 1.0 2.0 0.00 0.00 0.00 89 1019.7
20260509060530 48 180 0.0 2.0 0.00 0.00 0.00 91 1019.7
20260509055526 47 0.0 0.0 0.00 0.00 0.00 92 1019.6
20260509054521 46 87 1.0 2.0 0.00 0.00 0.00 92 1019.6
20260509053517 46 0.0 0.0 0.00 0.00 0.00 92 1019.5
20260509052615 46 0.0 0.0 0.00 0.00 0.00 93 1019.2
20260509051614 45 0.0 0.0 0.00 0.00 0.00 94 1019.2
20260509050613 44 0.0 0.0 0.00 0.00 0.00 94 1019.2
20260509045603 45 0.0 0.0 0.00 0.00 0.00 93 1019.0
20260509044602 45 0.0 2.0 0.00 0.00 0.00 93 1019.0
20260509043556 44 68 0.0 2.0 0.00 0.00 0.00 95 1018.8
20260509042557 43 0.0 0.0 0.00 0.00 0.00 95 1018.8
20260509041550 43 0.0 0.0 0.00 0.00 0.00 95 1018.9
20260509040547 43 0.0 0.0 0.00 0.00 0.00 95 1019.0
20260509035543 43 0.0 0.0 0.00 0.00 0.00 95 1018.9
20260509034540 43 0.0 0.0 0.00 0.00 0.00 95 1019.0
20260509033537 43 0.0 0.0 0.00 0.00 0.00 95 1019.0
20260509032535 44 0.0 0.0 0.00 0.00 0.00 95 1019.0
20260509031527 44 0.0 0.0 0.00 0.00 0.00 95 1019.0
20260509030524 44 0.0 0.0 0.00 0.00 0.00 95 1018.8
20260509025521 44 0.0 0.0 0.00 0.00 0.00 94 1018.9
20260509024521 44 0.0 0.0 0.00 0.00 0.00 94 1019.0
20260509023614 44 0.0 0.0 0.00 0.00 0.00 94 1019.0
20260509022610 44 0.0 0.0 0.00 0.00 0.00 93 1018.8
20260509021605 44 0.0 0.0 0.00 0.00 0.00 93 1019.0
20260509020601 45 0.0 0.0 0.00 0.00 0.00 93 1018.9
20260509015600 45 0.0 2.0 0.00 0.00 0.00 93 1018.9
20260509014556 45 81 1.0 4.0 0.00 0.00 0.00 93 1018.7
20260509013549 45 124 0.0 2.0 0.00 0.00 0.00 92 1018.8
20260509012547 45 72 1.0 4.0 0.00 0.00 0.00 92 1018.8
20260509011543 46 124 0.0 2.0 0.00 0.00 0.00 91 1018.9
20260509010542 46 88 1.0 4.0 0.00 0.00 0.00 91 1019.0
20260509005535 46 75 1.0 7.0 0.00 0.00 0.00 91 1018.9
20260509004530 46 86 0.0 2.0 0.00 0.00 0.00 91 1018.9
20260509003528 46 95 1.0 4.0 0.00 0.00 0.00 91 1018.9
20260509002524 46 83 0.0 4.0 0.00 0.00 0.00 91 1019.0
20260509001522 46 0.0 2.0 0.00 0.00 0.00 91 1019.0
20260509000518 46 0.0 0.0 0.00 0.00 0.00 91 1018.9
20260508235619 46 0.0 2.0 0.00 0.00 0.00 90 1018.9
20260508234615 47 84 1.0 2.0 0.00 0.00 0.00 90 1019.0
20260508233611 47 76 2.0 4.0 0.00 0.00 0.00 90 1019.0
20260508232608 47 68 2.0 2.0 0.00 0.00 0.00 90 1019.1
20260508231559 47 79 0.0 2.0 0.00 0.00 0.00 90 1019.2
20260508230559 47 0.0 2.0 0.00 0.00 0.00 89 1019.3
20260508225556 47 0.0 2.0 0.00 0.00 0.00 88 1019.2
20260508224553 48 0.0 0.0 0.00 0.00 0.00 88 1019.2
20260508223546 48 90 0.0 2.0 0.00 0.00 0.00 87 1019.2
20260508222541 48 0.0 0.0 0.00 0.00 0.00 86 1019.3
20260508221537 49 90 1.0 4.0 0.00 0.00 0.00 85 1019.2
20260508220536 49 83 1.0 2.0 0.00 0.00 0.00 86 1019.2
20260508215532 49 81 1.0 2.0 0.00 0.00 0.00 85 1019.1
20260508214525 49 90 1.0 2.0 0.00 0.00 0.00 84 1019.1
20260508213521 50 74 1.0 2.0 0.00 0.00 0.00 84 1019.1
20260508212518 50 78 2.0 4.0 0.00 0.00 0.00 83 1019.1
20260508211515 50 74 2.0 4.0 0.00 0.00 0.00 82 1019.0
20260508210611 51 68 3.0 6.0 0.00 0.00 0.00 81 1018.9
20260508205607 51 70 3.0 4.0 0.00 0.00 0.00 81 1019.0
20260508204602 52 72 3.0 4.0 0.00 0.00 0.00 80 1018.9
20260508203602 52 83 2.0 4.0 0.00 0.00 0.00 79 1018.8
20260508202556 52 72 2.0 4.0 0.00 0.00 0.00 79 1018.8
20260508201556 52 64 3.0 4.0 0.00 0.00 0.00 79 1018.7
20260508200550 52 63 3.0 4.0 0.00 0.00 0.00 79 1018.7
20260508195547 52 70 3.0 4.0 0.00 0.00 0.00 79 1018.7
20260508194544 53 68 2.0 4.0 0.00 0.00 0.00 78 1018.7
20260508193539 53 71 2.0 4.0 0.00 0.00 0.00 77 1018.6
20260508192540 54 66 2.0 4.0 0.00 0.00 0.00 76 1018.4
20260508191534 54 62 2.0 4.0 0.00 0.00 0.00 74 1018.3
20260508190527 55 83 2.0 4.0 0.00 0.00 0.00 73 1018.0
20260508185527 55 90 3.0 6.0 0.00 0.00 0.00 71 1017.8
20260508184521 56 68 3.0 6.0 0.00 0.00 0.00 68 1017.8
20260508183518 56 67 3.0 6.0 0.00 0.00 0.00 65 1017.6
20260508182613 57 68 4.0 7.0 0.00 0.00 0.00 63 1017.5
20260508181608 57 73 2.0 4.0 0.00 0.00 0.00 62 1017.4
20260508180604 58 70 2.0 4.0 0.00 0.00 0.00 61 1017.3
20260508175603 59 73 2.0 7.0 0.00 0.00 0.00 59 1017.2
20260508174556 59 84 3.0 6.0 0.00 0.00 0.00 58 1017.1
20260508173552 60 80 2.0 6.0 0.00 0.00 0.00 58 1017.2
20260508172552 60 99 1.0 4.0 0.00 0.00 0.00 58 1017.2
20260508171546 60 76 1.0 4.0 0.00 0.00 0.00 56 1017.2
20260508170546 60 81 2.0 4.0 0.00 0.00 0.00 55 1017.1
20260508165546 60 82 2.0 6.0 0.00 0.00 0.00 55 1017.2
20260508164536 61 67 3.0 8.0 0.00 0.00 0.00 56 1017.1
20260508163530 61 81 4.0 7.0 0.00 0.00 0.00 55 1017.2
20260508162527 61 95 3.0 7.0 0.00 0.00 0.00 54 1017.1
20260508161524 61 85 2.0 4.0 0.00 0.00 0.00 51 1017.1
20260508160523 61 82 3.0 7.0 0.00 0.00 0.00 52 1017.1
20260508155517 62 92 2.0 6.0 0.00 0.00 0.00 52 1017.0
20260508154614 61 71 3.0 7.0 0.00 0.00 0.00 53 1017.1
20260508153611 63 84 3.0 7.0 0.00 0.00 0.00 50 1017.1
20260508152609 63 76 2.0 4.0 0.00 0.00 0.00 49 1017.1
20260508151602 63 98 2.0 6.0 0.00 0.00 0.00 49 1017.1
20260508150602 64 76 3.0 6.0 0.00 0.00 0.00 48 1017.2
20260508145555 65 68 3.0 7.0 0.00 0.00 0.00 48 1017.2
20260508144555 65 225 3.0 7.0 0.00 0.00 0.00 45 1017.2
20260508143556 65 229 1.0 4.0 0.00 0.00 0.00 46 1017.2
20260508142548 64 226 3.0 7.0 0.00 0.00 0.00 48 1017.4
20260508141543 64 122 1.0 2.0 0.00 0.00 0.00 47 1017.5
20260508140538 63 211 2.0 6.0 0.00 0.00 0.00 50 1017.5
20260508135531 64 205 2.0 4.0 0.00 0.00 0.00 48 1017.7